BAW2067 EGKK-DGAA

Flight info

Callsign BAW2067
Flight time N/A
Altitude 23000
Route BOGNA1X BOGNA L612 BENBO Y47 DRAKE L151 SITET UN859 SOPIL DCT BALAN DCT LMG DCT PIMQO DCT AGN DCT ANETO DCT TURUV DCT GRAUS DCT LOBAR DCT SEROX DCT CASPE DCT MLA DCT CRETA DCT RIMES DCT SAURA DCT TATOS DCT PLANA DCT VLC DCT RIPUX DCT SUMMO DCT MAGAL DCT LIMTU DCT RINDI DCT HAMRA/N0470F370 UA34 MOS UA604 EREBO/N0476F400 DCT MIGNI DCT ABALA DCT IPUTA DCT TATAT DCT KILMO DCT LITEX LITEX1B
Aircraft B772/H-SDE1E3FGHIJ3J5J6M1M2P2RWXYZ/LB1D1

Departure

Time 2026-04-14 12:15
Airport London Gatwick Airport (EGKK)

Arrival

Time N/A
Airport Kotoka International Airport (DGAA)
Time Latitude Longitude Altitude Speed Heading
2026-04-14 11:09 51.15632 -0.16582 208 ft 0 kts 168°
2026-04-14 12:04 51.15645 -0.16587 210 ft 4 kts 157°
2026-04-14 12:04 51.15666 -0.16611 208 ft 4 kts 131°
2026-04-14 12:05 51.15683 -0.16638 221 ft 4 kts 168°
2026-04-14 12:05 51.15699 -0.16629 208 ft 4 kts 250°
2026-04-14 12:05 51.15704 -0.16597 221 ft 4 kts 258°
2026-04-14 12:05 51.15708 -0.16570 208 ft 0 kts 258°
2026-04-14 12:09 51.15704 -0.16596 218 ft 8 kts 257°
2026-04-14 12:09 51.15687 -0.16723 218 ft 12 kts 257°
2026-04-14 12:10 51.15668 -0.16858 218 ft 12 kts 257°
2026-04-14 12:10 51.15650 -0.16992 214 ft 12 kts 257°
2026-04-14 12:10 51.15631 -0.17127 217 ft 12 kts 257°
2026-04-14 12:10 51.15613 -0.17245 214 ft 9 kts 256°
2026-04-14 12:11 51.15576 -0.17316 219 ft 9 kts 181°
2026-04-14 12:11 51.15511 -0.17299 208 ft 9 kts 168°
2026-04-14 12:11 51.15447 -0.17277 208 ft 9 kts 168°
2026-04-14 12:11 51.15383 -0.17255 211 ft 9 kts 167°
2026-04-14 12:12 51.15319 -0.17232 208 ft 9 kts 168°
2026-04-14 12:12 51.15260 -0.17191 220 ft 9 kts 144°
2026-04-14 12:12 51.15208 -0.17128 216 ft 9 kts 131°
2026-04-14 12:12 51.15204 -0.17027 214 ft 9 kts 79°
2026-04-14 12:13 51.15214 -0.16953 217 ft 5 kts 78°
2026-04-14 12:13 51.15221 -0.16897 218 ft 5 kts 79°
2026-04-14 12:13 51.15218 -0.16843 220 ft 5 kts 109°
2026-04-14 12:13 51.15192 -0.16801 218 ft 7 kts 152°
2026-04-14 12:14 51.15135 -0.16797 210 ft 9 kts 202°
2026-04-14 12:14 51.15112 -0.16871 206 ft 0 kts 256°
2026-04-14 12:14 51.15111 -0.16878 217 ft 6 kts 256°
2026-04-14 12:14 51.15066 -0.17200 208 ft 63 kts 258°
2026-04-14 12:15 51.14908 -0.18254 214 ft 129 kts 258°
2026-04-14 12:15 51.14709 -0.19941 321 ft 170 kts 252°
2026-04-14 12:15 51.14468 -0.21750 1010 ft 166 kts 252°
2026-04-14 12:15 51.14215 -0.23537 1613 ft 174 kts 250°
2026-04-14 12:16 51.13925 -0.25566 1847 ft 203 kts 251°
2026-04-14 12:16 51.13594 -0.27876 2115 ft 221 kts 252°
2026-04-14 12:16 51.13256 -0.30293 2682 ft 231 kts 253°
2026-04-14 12:16 51.12888 -0.32898 3133 ft 245 kts 253°
2026-04-14 12:17 51.12516 -0.35557 3893 ft 246 kts 253°
2026-04-14 12:17 51.12030 -0.38156 4490 ft 244 kts 237°
2026-04-14 12:17 51.10904 -0.40144 5111 ft 244 kts 214°
2026-04-14 12:17 51.09424 -0.41430 5718 ft 245 kts 203°
2026-04-14 12:18 51.07750 -0.42086 5996 ft 251 kts 182°
2026-04-14 12:18 51.06023 -0.41767 6199 ft 257 kts 175°
2026-04-14 12:18 51.04233 -0.41316 6699 ft 263 kts 171°
2026-04-14 12:18 51.02469 -0.40575 7412 ft 263 kts 167°
2026-04-14 12:19 51.00696 -0.39748 8008 ft 267 kts 167°
2026-04-14 12:19 50.98897 -0.38905 8578 ft 270 kts 167°
2026-04-14 12:19 50.97077 -0.38053 9110 ft 275 kts 166°
2026-04-14 12:19 50.95238 -0.37202 9748 ft 276 kts 166°
2026-04-14 12:20 50.93389 -0.36347 10353 ft 276 kts 168°
2026-04-14 12:20 50.91489 -0.35491 10534 ft 293 kts 168°
2026-04-14 12:20 50.89472 -0.34591 10692 ft 311 kts 168°
2026-04-14 12:20 50.87335 -0.33649 11000 ft 324 kts 167°
2026-04-14 12:21 50.85140 -0.32671 11560 ft 331 kts 166°
2026-04-14 12:21 50.82900 -0.31676 12261 ft 336 kts 167°
2026-04-14 12:21 50.80641 -0.30674 13112 ft 338 kts 167°
2026-04-14 12:21 50.78357 -0.29667 13852 ft 345 kts 167°
2026-04-14 12:22 50.76026 -0.28637 14530 ft 350 kts 167°
2026-04-14 12:22 50.73692 -0.27610 15132 ft 356 kts 167°
2026-04-14 12:22 50.71282 -0.26548 15772 ft 362 kts 167°
2026-04-14 12:22 50.68805 -0.25460 16417 ft 368 kts 167°
2026-04-14 12:23 50.66347 -0.24383 17024 ft 375 kts 167°
2026-04-14 12:23 50.63813 -0.23276 17611 ft 381 kts 167°
2026-04-14 12:23 50.61228 -0.22161 18207 ft 388 kts 167°
2026-04-14 12:23 50.58609 -0.21035 18761 ft 393 kts 167°
2026-04-14 12:24 50.55955 -0.19898 19290 ft 398 kts 167°
2026-04-14 12:24 50.53265 -0.18742 19819 ft 403 kts 167°
2026-04-14 12:24 50.50545 -0.17574 20314 ft 408 kts 167°
2026-04-14 12:24 50.47793 -0.16393 20818 ft 413 kts 167°
2026-04-14 12:25 50.44996 -0.15192 21301 ft 418 kts 167°
2026-04-14 12:25 50.42173 -0.13985 21780 ft 423 kts 168°
2026-04-14 12:25 50.39313 -0.12763 22210 ft 429 kts 167°
2026-04-14 12:25 50.36453 -0.11542 22667 ft 434 kts 168°
2026-04-14 12:26 50.33488 -0.10276 23154 ft 439 kts 168°
2026-04-14 12:26 50.30566 -0.09030 23616 ft 443 kts 168°
2026-04-14 12:26 50.27574 -0.07755 24033 ft 448 kts 168°
2026-04-14 12:26 50.24555 -0.06488 24440 ft 451 kts 168°
2026-04-14 12:27 50.21508 -0.05226 24884 ft 455 kts 168°
2026-04-14 12:27 50.18449 -0.03956 25294 ft 456 kts 167°
2026-04-14 12:27 50.15385 -0.02535 25686 ft 463 kts 166°
2026-04-14 12:27 50.12288 -0.01096 26172 ft 463 kts 166°
2026-04-14 12:28 50.09184 0.00273 26514 ft 469 kts 166°
2026-04-14 12:28 50.06030 0.01640 26871 ft 473 kts 168°
2026-04-14 12:28 50.02841 0.02915 27314 ft 474 kts 168°
2026-04-14 12:28 49.99637 0.04167 27717 ft 476 kts 168°
2026-04-14 12:29 49.96413 0.05451 28110 ft 481 kts 168°
2026-04-14 12:29 49.93162 0.06780 28518 ft 484 kts 167°
2026-04-14 12:29 49.89892 0.08121 28935 ft 486 kts 168°
2026-04-14 12:29 49.86610 0.09495 29315 ft 491 kts 166°
2026-04-14 12:30 49.83317 0.10974 29673 ft 494 kts 167°
2026-04-14 12:30 49.79991 0.12370 30049 ft 497 kts 167°
2026-04-14 12:30 49.76630 0.13741 30405 ft 500 kts 168°
2026-04-14 12:30 49.73252 0.15114 30708 ft 504 kts 167°
2026-04-14 12:31 49.69897 0.16488 30986 ft 508 kts 167°
2026-04-14 12:31 49.66471 0.17900 31270 ft 511 kts 167°
2026-04-14 12:31 49.63021 0.19326 31545 ft 515 kts 167°
2026-04-14 12:31 49.59546 0.20764 31823 ft 519 kts 167°
2026-04-14 12:32 49.56049 0.22211 32085 ft 522 kts 167°
2026-04-14 12:32 49.52529 0.23667 32343 ft 525 kts 167°
2026-04-14 12:32 49.48986 0.25127 32583 ft 529 kts 166°
2026-04-14 12:32 49.45430 0.26589 32838 ft 532 kts 166°
2026-04-14 12:33 49.41837 0.28063 33079 ft 534 kts 166°
2026-04-14 12:33 49.38235 0.29538 33312 ft 537 kts 166°
2026-04-14 12:33 49.34611 0.31020 33532 ft 540 kts 166°
2026-04-14 12:33 49.30969 0.32509 33789 ft 542 kts 166°
2026-04-14 12:34 49.27324 0.33997 34090 ft 543 kts 166°
2026-04-14 12:34 49.23672 0.35484 34399 ft 543 kts 166°
2026-04-14 12:34 49.20027 0.36967 34724 ft 542 kts 166°
2026-04-14 12:34 49.16388 0.38445 35050 ft 541 kts 166°
2026-04-14 12:35 49.12754 0.39919 35351 ft 540 kts 167°
2026-04-14 12:35 49.09120 0.41392 35647 ft 540 kts 167°
2026-04-14 12:35 49.05490 0.42860 35945 ft 539 kts 166°
2026-04-14 12:35 49.01863 0.44323 36251 ft 540 kts 166°
2026-04-14 12:36 48.98224 0.45789 36426 ft 542 kts 166°
2026-04-14 12:36 48.94579 0.47254 36690 ft 541 kts 166°
2026-04-14 12:36 48.90947 0.48713 37003 ft 540 kts 166°
2026-04-14 12:36 48.87298 0.50176 37128 ft 543 kts 166°
2026-04-14 12:37 48.80004 0.53096 37159 ft 546 kts 167°
2026-04-14 12:37 48.72718 0.56005 37162 ft 538 kts 167°
2026-04-14 12:38 48.61870 0.60318 37158 ft 537 kts 166°
2026-04-14 12:39 48.54639 0.63178 37173 ft 537 kts 166°
2026-04-14 12:39 48.47401 0.66040 37177 ft 538 kts 166°
2026-04-14 12:40 48.40148 0.68899 37176 ft 539 kts 166°
2026-04-14 12:40 48.32883 0.71753 37180 ft 540 kts 166°
2026-04-14 12:41 48.25610 0.74595 37177 ft 540 kts 166°
2026-04-14 12:41 48.18331 0.77434 37171 ft 541 kts 166°
2026-04-14 12:42 48.11048 0.80270 37178 ft 541 kts 166°
2026-04-14 12:42 48.03816 0.83077 37180 ft 541 kts 166°
2026-04-14 12:43 47.96534 0.85893 37195 ft 541 kts 166°
2026-04-14 12:43 47.89245 0.88704 37183 ft 541 kts 166°
2026-04-14 12:44 47.81954 0.91512 37181 ft 541 kts 166°
2026-04-14 12:44 47.74660 0.94310 37186 ft 541 kts 166°
2026-04-14 12:45 47.63716 0.98491 37188 ft 541 kts 166°
2026-04-14 12:45 47.56423 1.01271 37190 ft 542 kts 166°
2026-04-14 12:46 47.49122 1.04042 37190 ft 541 kts 166°
2026-04-14 12:46 47.41739 1.06121 37198 ft 540 kts 176°
2026-04-14 12:47 47.34257 1.06341 37203 ft 537 kts 184°
2026-04-14 12:47 47.26785 1.06049 37201 ft 538 kts 184°
2026-04-14 12:48 47.19295 1.05854 37197 ft 538 kts 183°
2026-04-14 12:48 47.11786 1.05700 37199 ft 539 kts 183°
2026-04-14 12:49 47.04280 1.05538 37197 ft 540 kts 183°
2026-04-14 12:49 46.96819 1.05302 37193 ft 540 kts 184°
2026-04-14 12:50 46.86768 1.04823 37193 ft 540 kts 184°
2026-04-14 12:51 46.79257 1.04486 37194 ft 540 kts 184°
2026-04-14 12:51 46.71785 1.04164 37200 ft 540 kts 184°
2026-04-14 12:52 46.64276 1.03843 37192 ft 540 kts 184°
2026-04-14 12:52 46.56759 1.03520 37197 ft 540 kts 184°
2026-04-14 12:53 46.49242 1.03220 37195 ft 540 kts 183°
2026-04-14 12:53 46.41720 1.03132 37199 ft 540 kts 182°
2026-04-14 12:54 46.34199 1.03108 37191 ft 541 kts 182°
2026-04-14 12:54 46.26678 1.03057 37200 ft 540 kts 182°
2026-04-14 12:55 46.19143 1.02977 37202 ft 541 kts 182°
2026-04-14 12:55 46.11610 1.02897 37190 ft 541 kts 182°
2026-04-14 12:56 46.04074 1.02822 37193 ft 542 kts 182°
2026-04-14 12:56 45.96582 1.02748 37180 ft 542 kts 182°
2026-04-14 12:57 45.89041 1.02674 37189 ft 542 kts 182°
2026-04-14 12:57 45.81498 1.02779 37186 ft 543 kts 177°
2026-04-14 12:58 45.74027 1.04398 37195 ft 543 kts 169°
2026-04-14 12:58 45.66597 1.06419 37199 ft 544 kts 169°
2026-04-14 12:59 45.59152 1.08363 37191 ft 544 kts 169°
2026-04-14 12:59 45.51690 1.10259 37183 ft 545 kts 169°
2026-04-14 13:00 45.44221 1.12150 37176 ft 545 kts 169°
2026-04-14 13:00 45.36745 1.14041 37190 ft 544 kts 169°
2026-04-14 13:01 45.29285 1.15927 37218 ft 545 kts 169°
2026-04-14 13:01 45.21820 1.17791 37185 ft 544 kts 171°
2026-04-14 13:02 45.14302 1.18361 37189 ft 541 kts 183°
2026-04-14 13:02 45.06846 1.17140 37184 ft 537 kts 193°
2026-04-14 13:03 44.99510 1.15160 37178 ft 536 kts 193°
2026-04-14 13:03 44.92173 1.13218 37177 ft 536 kts 193°
2026-04-14 13:04 44.84873 1.11341 37179 ft 538 kts 193°
2026-04-14 13:04 44.77495 1.09470 37190 ft 540 kts 193°
2026-04-14 13:05 44.70090 1.07599 37184 ft 541 kts 193°
2026-04-14 13:05 44.62668 1.05726 37188 ft 542 kts 193°
2026-04-14 13:06 44.55231 1.03847 37190 ft 543 kts 192°
2026-04-14 13:06 44.47788 1.01972 37185 ft 543 kts 192°
2026-04-14 13:07 44.40350 1.00105 37184 ft 543 kts 192°
2026-04-14 13:07 44.32912 0.98246 37188 ft 542 kts 192°
2026-04-14 13:08 44.25486 0.96393 37193 ft 542 kts 192°
2026-04-14 13:08 44.18065 0.94546 37193 ft 541 kts 192°
2026-04-14 13:09 44.10653 0.92702 37199 ft 541 kts 192°
2026-04-14 13:09 44.03246 0.90868 37210 ft 540 kts 192°
2026-04-14 13:10 43.95886 0.89048 37200 ft 541 kts 192°
2026-04-14 13:10 43.88482 0.87223 37202 ft 541 kts 192°
2026-04-14 13:11 43.81085 0.85283 37194 ft 541 kts 193°
2026-04-14 13:11 43.73693 0.83271 37202 ft 540 kts 193°
2026-04-14 13:12 43.66316 0.81279 37199 ft 540 kts 192°
2026-04-14 13:12 43.58942 0.79312 37203 ft 539 kts 192°
2026-04-14 13:13 43.51580 0.77356 37204 ft 539 kts 192°
2026-04-14 13:13 43.44212 0.75405 37189 ft 539 kts 193°
2026-04-14 13:14 43.36839 0.73450 37199 ft 540 kts 193°
2026-04-14 13:14 43.29446 0.71495 37205 ft 542 kts 193°
2026-04-14 13:15 43.22073 0.69557 37187 ft 543 kts 192°
2026-04-14 13:15 43.14660 0.67611 37197 ft 542 kts 192°
2026-04-14 13:16 43.07246 0.65667 37192 ft 542 kts 192°
2026-04-14 13:16 42.99826 0.63733 37165 ft 542 kts 192°
2026-04-14 13:17 42.92424 0.61801 37170 ft 541 kts 193°
2026-04-14 13:17 42.85055 0.59874 37186 ft 537 kts 192°
2026-04-14 13:18 42.77708 0.57978 37159 ft 537 kts 192°
2026-04-14 13:18 42.70386 0.56080 37163 ft 536 kts 192°
2026-04-14 13:19 42.63042 0.54196 37123 ft 536 kts 192°
2026-04-14 13:19 42.55698 0.52319 37115 ft 538 kts 193°
2026-04-14 13:20 42.48331 0.50443 37087 ft 539 kts 193°
2026-04-14 13:20 42.40946 0.48551 37081 ft 540 kts 193°
2026-04-14 13:21 42.33565 0.46674 37074 ft 541 kts 192°
2026-04-14 13:21 42.26148 0.44785 37064 ft 544 kts 192°
2026-04-14 13:22 42.18695 0.42881 37092 ft 546 kts 192°
2026-04-14 13:22 42.11206 0.40974 37056 ft 549 kts 192°
2026-04-14 13:23 42.03679 0.39065 37048 ft 551 kts 192°
2026-04-14 13:23 41.96138 0.37154 37055 ft 552 kts 192°
2026-04-14 13:24 41.88635 0.35267 37060 ft 552 kts 192°
2026-04-14 13:24 41.77333 0.32435 37051 ft 550 kts 192°
2026-04-14 13:25 41.69832 0.30564 37063 ft 547 kts 192°
2026-04-14 13:26 41.54919 0.26877 37067 ft 543 kts 192°
2026-04-14 13:26 41.47493 0.25048 37066 ft 542 kts 192°
2026-04-14 13:27 41.40077 0.23222 37062 ft 541 kts 192°
2026-04-14 13:27 41.32671 0.21397 37069 ft 541 kts 192°
2026-04-14 13:28 41.25290 0.19523 37081 ft 541 kts 192°
2026-04-14 13:28 41.17929 0.17708 37080 ft 541 kts 191°
2026-04-14 13:29 41.10549 0.15657 37078 ft 541 kts 198°
2026-04-14 13:29 41.03361 0.12704 37086 ft 541 kts 199°
2026-04-14 13:30 40.96162 0.09762 37096 ft 543 kts 199°
2026-04-14 13:30 40.88921 0.06883 37100 ft 544 kts 198°
2026-04-14 13:31 40.81708 0.03998 37094 ft 545 kts 199°
2026-04-14 13:31 40.74413 0.01061 37091 ft 545 kts 199°
2026-04-14 13:32 40.67207 -0.01832 37056 ft 545 kts 199°
2026-04-14 13:32 40.59961 -0.04735 37099 ft 544 kts 199°
2026-04-14 13:33 40.52718 -0.07624 37128 ft 544 kts 199°
2026-04-14 13:33 40.45461 -0.10487 37171 ft 544 kts 199°
2026-04-14 13:34 40.34578 -0.14772 37204 ft 545 kts 199°
2026-04-14 13:35 40.27311 -0.17626 37192 ft 544 kts 199°
2026-04-14 13:35 40.20072 -0.20474 37189 ft 544 kts 199°
2026-04-14 13:36 40.12827 -0.23346 37140 ft 543 kts 199°
2026-04-14 13:36 40.05594 -0.26199 37086 ft 543 kts 198°
2026-04-14 13:37 39.98375 -0.29035 37088 ft 542 kts 198°
2026-04-14 13:37 39.92356 -0.31352 37110 ft 542 kts 198°
2026-04-14 13:38 39.83920 -0.34602 37066 ft 543 kts 198°
2026-04-14 13:38 39.76688 -0.37419 37083 ft 543 kts 199°
2026-04-14 13:39 39.70658 -0.39768 37076 ft 545 kts 198°
2026-04-14 13:39 39.63384 -0.42590 37075 ft 545 kts 198°
2026-04-14 13:40 39.56112 -0.45402 37089 ft 546 kts 198°
2026-04-14 13:40 39.48658 -0.47322 37104 ft 548 kts 184°
2026-04-14 13:41 39.41058 -0.47143 37103 ft 546 kts 169°
2026-04-14 13:41 39.33557 -0.45633 37098 ft 546 kts 169°
2026-04-14 13:42 39.26039 -0.44221 37099 ft 546 kts 170°
2026-04-14 13:42 39.18554 -0.42899 37096 ft 546 kts 170°
2026-04-14 13:43 39.11015 -0.41544 37128 ft 547 kts 170°
2026-04-14 13:43 39.03485 -0.40193 37162 ft 546 kts 170°
2026-04-14 13:44 38.95963 -0.38841 37178 ft 545 kts 170°
2026-04-14 13:44 38.88446 -0.37494 37213 ft 545 kts 170°
2026-04-14 13:45 38.80950 -0.36158 37203 ft 544 kts 170°
2026-04-14 13:45 38.73444 -0.34825 37208 ft 544 kts 170°
2026-04-14 13:46 38.65938 -0.33488 37103 ft 544 kts 170°
2026-04-14 13:46 38.58454 -0.32161 37111 ft 543 kts 170°
2026-04-14 13:47 38.50955 -0.30840 37097 ft 544 kts 171°
2026-04-14 13:47 38.43440 -0.29512 37098 ft 545 kts 170°
2026-04-14 13:48 38.35969 -0.28194 37116 ft 545 kts 171°
2026-04-14 13:48 38.28455 -0.26863 37106 ft 544 kts 170°
2026-04-14 13:49 38.20961 -0.25529 37102 ft 544 kts 170°
2026-04-14 13:49 38.13450 -0.24191 37115 ft 546 kts 171°
2026-04-14 13:50 38.05922 -0.22855 37115 ft 547 kts 171°
2026-04-14 13:50 37.98368 -0.21524 37124 ft 548 kts 171°
2026-04-14 13:51 37.90814 -0.20206 37113 ft 549 kts 171°
2026-04-14 13:51 37.83245 -0.18897 37122 ft 549 kts 171°
2026-04-14 13:52 37.75671 -0.17579 37126 ft 550 kts 171°
2026-04-14 13:52 37.68136 -0.16276 37131 ft 550 kts 171°
2026-04-14 13:53 37.60565 -0.14963 37129 ft 549 kts 171°
2026-04-14 13:53 37.52986 -0.13665 37129 ft 549 kts 171°
2026-04-14 13:54 37.45403 -0.12383 37125 ft 550 kts 171°
2026-04-14 13:54 37.37829 -0.11085 37132 ft 549 kts 171°
2026-04-14 13:55 37.30261 -0.09789 37133 ft 549 kts 171°
2026-04-14 13:55 37.22703 -0.08512 37126 ft 548 kts 171°
2026-04-14 13:56 37.15142 -0.07233 37132 ft 547 kts 171°
2026-04-14 13:56 37.07594 -0.05957 37136 ft 547 kts 171°
2026-04-14 13:57 37.00097 -0.04698 37139 ft 546 kts 172°
2026-04-14 13:57 36.92573 -0.03438 37147 ft 546 kts 172°
2026-04-14 13:58 36.85046 -0.02169 37139 ft 545 kts 172°
2026-04-14 13:58 36.77524 -0.00908 37158 ft 545 kts 172°
2026-04-14 13:59 36.70002 0.00352 37162 ft 545 kts 172°
2026-04-14 13:59 36.62492 0.01606 37146 ft 545 kts 172°
2026-04-14 14:00 36.54975 0.02856 37150 ft 545 kts 172°
2026-04-14 14:00 36.47454 0.04107 37144 ft 544 kts 172°
2026-04-14 14:01 36.39950 0.05353 37157 ft 544 kts 172°
2026-04-14 14:01 36.32495 0.06588 37151 ft 543 kts 172°
2026-04-14 14:02 36.24999 0.07828 37163 ft 543 kts 172°
2026-04-14 14:02 36.17492 0.09067 37157 ft 545 kts 172°
2026-04-14 14:03 36.10139 0.10278 37156 ft 546 kts 172°
2026-04-14 14:03 36.02603 0.11517 37159 ft 546 kts 172°
2026-04-14 14:04 35.95059 0.12753 37158 ft 547 kts 172°
2026-04-14 14:04 35.87574 0.14528 37160 ft 547 kts 162°
2026-04-14 14:05 35.80409 0.17641 37156 ft 546 kts 158°
2026-04-14 14:05 35.73268 0.20853 37155 ft 547 kts 158°
2026-04-14 14:06 35.66091 0.23990 37156 ft 547 kts 159°
2026-04-14 14:06 35.58901 0.27102 37155 ft 548 kts 159°
2026-04-14 14:07 35.51754 0.30198 37151 ft 549 kts 159°
2026-04-14 14:07 35.44565 0.33330 37155 ft 548 kts 158°
2026-04-14 14:08 35.37390 0.36484 37166 ft 547 kts 158°